Regional Weather Roundup
Issued by NWS

Home | Current Version | Previous Version | Graphics & Text | Print | Product List | Glossary On
Versions: 1 2 3 4 5 6 7 8 9 10 11 12 13 14 15 16 17 18 19 20 21 22 23 24 25 26 27 28 29 30 31 32 33 34 35 36 37 38 39 40 41 42 43 44 45 46 47 48 49 50
000
ASUS44 KMEG 220900
RWRTN
TENNESSEE HOURLY STATE WEATHER ROUNDUP
NATIONAL WEATHER SERVICE MEMPHIS TN
400 AM CDT MON SEP 22 2014

TNZ002-004-019-021-049-052-054-088>092-221000-
WEST TENNESSEE

CITY           SKY/WX    TMP DP  RH WIND       PRES   REMARKS
MEMPHIS INTL   CLEAR     65  50  58 NE10      30.12R
NWS MEMPHIS      N/A     63 N/A N/A MISG        N/A
JACKSON        CLEAR     56  50  80 N5        30.12R
DYERSBURG      CLEAR     59  45  58 N9        30.15R
UNION CITY     CLEAR     54  52  94 N5        30.13S
PARIS          CLEAR     52  48  87 N3        30.14S
SAVANNAH       CLEAR     54  54 100 CALM      30.11R
$$

TNZ008-025-027-028-033-062-065-066-221000-
NORTH MIDDLE TENNESSEE

CITY           SKY/WX    TMP DP  RH WIND       PRES   REMARKS
NASHVILLE      CLEAR     58  51  78 N7        30.11R
CLARKSVILLE    CLEAR     53  48  83 N6        30.12R
COOKEVILLE     CLEAR     50  50 100 CALM      30.08R
CROSSVILLE     CLEAR     54  48  80 N6        30.09S
$$

TNZ061-075-076-078-094-096-097-221000-
SOUTH MIDDLE TENNESSEE

CITY           SKY/WX    TMP DP  RH WIND       PRES   REMARKS
WINCHESTER     CLEAR     54  54 100 CALM      30.07S
SHELBYVILLE    CLEAR     57  52  82 N5        30.10R
$$

TNZ017-018-042-046-047-221000-
NORTHEAST TENNESSEE

CITY           SKY/WX    TMP DP  RH WIND       PRES   REMARKS
TRI CITIES     CLEAR     51  48  89 CALM      30.04R
ELIZABETHTON   MOSUNNY   48  48 100 CALM      30.05R FOG
$$

TNZ012-013-036-069-073-074-221000-
CENTRAL EAST TENNESSEE

CITY           SKY/WX    TMP DP  RH WIND       PRES   REMARKS
KNOXVILLE      CLEAR     60  52  74 N8        30.05R
OAK RIDGE      CLEAR     56  52  86 CALM      30.08R
GATLINBURG     SUNNY     54  54 100 CALM      30.05R
$$

TNZ083-085-099-221000-
SOUTHEAST TENNESSEE

CITY           SKY/WX    TMP DP  RH WIND       PRES   REMARKS
CHATTANOOGA    CLEAR     63  51  65 CALM      30.04S
$$

SKY/WX REPORTED AS FAIR MEANS FEW OR NO CLOUDS BELOW
12 THOUSAND FEET.



USA.gov is the U.S. government's official web portal to all federal, state and local government web resources and services.